Regional Weather Roundup
Issued by NWS

Current Version | Previous Version | Text Only | Print | Product List | Glossary On
Versions: 1 2 3 4 5 6 7 8 9 10 11 12 13 14 15 16 17 18 19 20 21 22 23 24 25 26 27 28 29 30 31 32 33 34 35 36 37 38 39 40 41 42 43 44 45 46 47 48 49
000
ASUS44 KBMX 041610
RWRAL

ALABAMA REGIONAL WEATHER ROUNDUP
NATIONAL WEATHER SERVICE BIRMINGHAM AL
1100 AM CDT FRI SEP 04 2015

NOTE: "FAIR" INDICATES FEW OR NO CLOUDS BELOW 12,000 FEET
WITH NO SIGNIFICANT WEATHER AND/OR OBSTRUCTIONS TO VISIBILITY.

THE REMARK "TC" DENOTES TEMPERATURE IN DEGREES CELSIUS.

ALZ001>011-014-016>018-020-041700-
NORTH ALABAMA

CITY           SKY/WX    TMP DP  RH WIND       PRES   REMARKS
MUSCLE SHOALS  SUNNY     88  72  58 CALM      30.05S HX  94
HUNTSVILLE     SUNNY     90  72  55 NE3       30.04F HX  97
DECATUR        SUNNY     86  73  65 CALM      30.05S HX  93
HALEYVILLE     FAIR      87  71  58 CALM      30.08S HX  92
GADSDEN        SUNNY     84  70  61 CALM      30.03S
$$

ALZ012-013-022-023-030>036-040>044-041700-
WEST CENTRAL ALABAMA

CITY           SKY/WX    TMP DP  RH WIND       PRES   REMARKS
TUSCALOOSA     SUNNY     88  73  61 CALM      30.02S HX  95
$$

ALZ015-024>027-033>036-040>044-041700-
CENTRAL ALABAMA

CITY           SKY/WX    TMP DP  RH WIND       PRES   REMARKS
BIRMINGHAM     SUNNY     86  71  60 NW6       30.06S HX  91
MONTGOMERY     SUNNY     90  72  55 N6        30.01S HX  97
SHELBY CO ARPT SUNNY     87  71  58 N5        30.03S HX  93
MAXWELL AFB    SUNNY     86  73  64 N3        30.01R HX  94
GREENVILLE     FAIR      87  70  56 NW7       30.01S HX  92
$$

ALZ019-021-028-029-037-038-045>048-041700-
EAST CENTRAL ALABAMA

CITY           SKY/WX    TMP DP  RH WIND       PRES   REMARKS
ANNISTON       SUNNY     84  71  65 CALM      30.04S
ALEXANDER CITY SUNNY     89  74  60 N6        30.04R HX  98
AUBURN         NOT AVBL
$$

ALZ051>064-041700-
SOUTHWEST ALABAMA

CITY           SKY/WX    TMP DP  RH WIND       PRES   REMARKS
MOBILE         MOSUNNY   85  74  69 W5        30.03S HX  92
BROOKLEY FIELD PTSUNNY   86  76  71 E8        30.03R HX  96
EVERGREEN      SUNNY     88  73  61 VRB3      30.02S HX  95
$$

ALZ049-050-065>069-041700-
SOUTHEAST ALABAMA

CITY           SKY/WX    TMP DP  RH WIND       PRES   REMARKS
DOTHAN         SUNNY     86  73  65 N3        30.05R HX  93
OZARK          SUNNY     87  73  63 VRB2      30.01S HX  94
TROY           SUNNY     90  72  55 NW6       30.02S HX  97
EUFAULA        FAIR      88  73  61 NW5       30.00S HX  95
$$



USA.gov is the U.S. government's official web portal to all federal, state and local government web resources and services.